Weather History for Tanana, AK

Change the Weather History Date:

Friday, November 2, 2012

  Actual Average Record
Temperature  
Mean Temperature 3 °F -  
Max Temperature 14 °F 16 °F 36 °F (1954)
Min Temperature -8 °F 1 °F -29 °F (1956)
Degree Days  
Heating Degree Days 62    
Moisture  
Dew Point -7 °F    
Average Humidity 79    
Maximum Humidity 88    
Minimum Humidity 71    
Precipitation  
Precipitation 0.00 in - - ()
Snow  
Snow 0.00 in - - ()
Snow Depth 4.00 in    
Sea Level Pressure  
Sea Level Pressure 29.92 in    
Wind  
Wind Speed 3 mph (NW)    
Max Wind Speed 6 mph    
Max Gust Speed -    
Visibility 10 miles    
Events      
Averages and records for this station are not official NWS values.
T = Trace of Precipitation, MM = Missing Value Source: NWS Daily Summary

Daily Weather History Graph

Daily Weather History Graph

Search for Another Location

Airport:

Trip Planner

Search our weather history database for the weather conditions in past years. The results will help you decide how hot, cold, wet, or windy it might be!

Date:

Astronomy

Nov. 02, 2012 Rise Set
Actual Time 10:04 AM AKDT 5:38 PM AKDT
Civil Twilight 9:07 AM AKDT 6:35 PM AKDT
Nautical Twilight 8:07 AM AKDT 7:35 PM AKDT
Astronomical Twilight 7:09 AM AKDT 8:32 PM AKDT
Moon 7:32 PM AKDT (11/2) 2:36 PM AKDT (11/2)
Length of Visible Light 9h 28m
Length of Day
7h 34m
Waning Gibbous, 86% of the Moon is Illuminated
Nov 2
Waning Gibbous
Nov 6
Last Quarter
Nov 13
New
Nov 20
First Quarter
Nov 28
Full

Hourly Weather History & Observations

Time (AKDT) Temp. Windchill Dew Point Humidity Pressure Visibility Wind Dir Wind Speed Gust Speed Precip Events Conditions
12:52 AM 1.9 °F -5.6 °F -2.9 °F 80% 30.12 in 10.0 mi Variable 3.5 mph - N/A   Clear
1:52 AM -2.0 °F -10.1 °F -7.1 °F 79% 30.11 in 10.0 mi NNW 3.5 mph - N/A   Clear
2:52 AM -5.1 °F -13.6 °F -9.0 °F 83% 30.09 in 10.0 mi NNW 3.5 mph - N/A   Clear
3:52 AM -5.1 °F -15.8 °F -9.9 °F 80% 30.07 in 10.0 mi North 4.6 mph - N/A   Clear
4:52 AM -4.0 °F - -9.0 °F 79% 30.04 in 10.0 mi Calm Calm - N/A   Clear
5:08 AM -4.0 °F - -9.4 °F 78% 30.01 in 10.0 mi Calm Calm - N/A   Scattered Clouds
5:52 AM -6.0 °F -16.9 °F -11.0 °F 79% 30.02 in 10.0 mi NNW 4.6 mph - N/A   Clear
6:03 AM -5.8 °F - -11.2 °F 77% 29.99 in 10.0 mi Calm Calm - N/A   Partly Cloudy
6:20 AM -5.8 °F - -11.2 °F 77% 29.98 in 2.5 mi Calm Calm - N/A   Mostly Cloudy
6:35 AM -5.8 °F -16.7 °F -11.2 °F 77% 29.97 in 4.0 mi North 4.6 mph - N/A   Partly Cloudy
6:52 AM -7.1 °F -15.9 °F -11.0 °F 83% 29.99 in 10.0 mi NNW 3.5 mph - N/A   Partly Cloudy
7:52 AM -7.1 °F -15.9 °F -11.9 °F 79% 29.98 in 10.0 mi NW 3.5 mph - N/A   Partly Cloudy
8:52 AM -6.0 °F -18.6 °F -13.0 °F 72% 29.96 in 10.0 mi NNE 5.8 mph - N/A   Partly Cloudy
9:52 AM -8.0 °F -19.2 °F -13.0 °F 79% 29.94 in 10.0 mi NNE 4.6 mph - N/A   Partly Cloudy
10:20 AM -7.6 °F -16.5 °F -13.0 °F 77% 29.90 in 8.0 mi West 3.5 mph - N/A   Partly Cloudy
10:42 AM -5.8 °F - -11.2 °F 77% 29.90 in 10.0 mi Calm Calm - N/A   Overcast
10:52 AM -6.0 °F -14.7 °F -11.0 °F 79% 29.92 in 10.0 mi NW 3.5 mph - N/A   Overcast
11:52 AM 1.9 °F -5.6 °F -2.0 °F 83% 29.90 in 10.0 mi WNW 3.5 mph - N/A   Mostly Cloudy
11:59 AM 3.2 °F -6.2 °F -0.4 °F 85% 29.87 in 10.0 mi WNW 4.6 mph - N/A   Clear
12:52 PM 8.1 °F -2.0 °F 5.0 °F 87% 29.88 in 10.0 mi West 5.8 mph - N/A   Clear
1:52 PM 9.0 °F 0.6 °F 6.1 °F 88% 29.85 in 10.0 mi WNW 4.6 mph - N/A   Clear
2:52 PM 14.0 °F - 7.0 °F 74% 29.82 in 10.0 mi Calm Calm - N/A   Partly Cloudy
3:52 PM 12.9 °F - 5.0 °F 71% 29.81 in 10.0 mi Calm Calm - N/A   Clear
4:52 PM 12.9 °F - 5.0 °F 71% 29.80 in 10.0 mi Calm Calm - N/A   Clear
5:52 PM 6.1 °F - 1.0 °F 80% 29.79 in 10.0 mi Calm Calm - N/A   Clear
6:52 PM -0.9 °F - -6.0 °F 79% 29.79 in 10.0 mi Calm Calm - N/A   Clear
7:52 PM -4.0 °F -16.3 °F -8.0 °F 83% 29.79 in 10.0 mi NNW 5.8 mph - N/A   Clear
8:52 PM -4.0 °F -16.3 °F -9.0 °F 79% 29.78 in 10.0 mi NW 5.8 mph - N/A   Clear
9:52 PM -6.0 °F -14.7 °F -9.9 °F 83% 29.79 in 10.0 mi Variable 3.5 mph - N/A   Clear
10:52 PM -5.1 °F - -9.9 °F 80% 29.81 in 10.0 mi Calm Calm - N/A   Clear
11:52 PM -5.1 °F -15.8 °F -9.9 °F 80% 29.82 in 10.0 mi North 4.6 mph - N/A   Clear